Location: Unspecified
(47.6577°N, 23.5639°E)
Time: 18:19:44
(UTC+02:00)

ISS - Pass Details

Date: 14 February 2017
Orbit: 399 x 408 km, 51.6° (Epoch: 24 February)

Event Time Altitude Azimuth Distance (km) Brightness Sun altitude
Rises 20:02:49 0° 281° (W) 2,322 2.0 -23.3°
Reaches altitude 10° 20:06:24 10° 240° (WSW) 1,453 0.1 -23.9°
Maximum altitude 20:07:06 11° 227° (SW) 1,419 -0.1 -24.0°
Drops below altitude 10° 20:07:49 10° 214° (SW) 1,449 -0.2 -24.2°
Enters shadow 20:08:19 - 206° (SSW) 1,507 -0.2 -24.2°
